Grand Prairie, TX

4:50 PM CDT on October 20, 2017 (GMT -0500)
Grand Prairie Municipal

Weather History for KGPM - August, 2014

Change the Weather History Date:

Sunday, August 10, 2014

  Actual Average (KRBD) Record (KRBD)
Temperature  
Mean Temperature 89 °F -  
Max Temperature 101 °F 92 °F 106 °F (2015)
Min Temperature 80 °F 72 °F 69 °F (2002)
Cooling Degree Days 24    
Growing Degree Days 39 (Base 50)    
Moisture  
Dew Point 66 °F    
Average Humidity 52    
Maximum Humidity 70    
Minimum Humidity 27    
Precipitation  
Precipitation 0.00 in - - ()
Sea Level Pressure  
Sea Level Pressure 29.99 in    
Wind  
Wind Speed 5 mph (SSE)    
Max Wind Speed 12 mph    
Max Gust Speed 22 mph    
Visibility 10 miles    
Events      
Averages and records for this station are not official NWS values.
T = Trace of Precipitation, MM = Missing Value Source: NWS Daily Summary

Daily Weather History Graph

Daily Weather History Graph

Search for Another Location

Airport or City:

Trip Planner

Search our weather history database for the weather conditions in past years. The results will help you decide how hot, cold, wet, or windy it might be!

Date:

Astronomy

Aug. 10, 2014 Rise Set
Actual Time 6:48 AM CDT 8:18 PM CDT
Civil Twilight 6:22 AM CDT 8:44 PM CDT
Nautical Twilight 5:50 AM CDT 9:15 PM CDT
Astronomical Twilight 5:17 AM CDT 9:48 PM CDT
Moon 8:10 PM CDT (8/10) 6:39 AM CDT (8/10)
Length of Visible Light 14h 22m
Length of Day
13h 29m
Full, 100% of the Moon is Illuminated
Aug 10
Full
Aug 10
Full
Aug 17
Last Quarter
Aug 25
New
Sep 2
First Quarter

Hourly Weather History & Observations

Time (CDT) Temp. Heat Index Dew Point Humidity Pressure Visibility Wind Dir Wind Speed Gust Speed Precip Events Conditions
12:15 AM 85.3 °F 89.8 °F 69.8 °F 60% 30.00 in 10.0 mi ENE 6.9 mph - N/A   Clear
12:35 AM 84.6 °F 88.8 °F 69.8 °F 61% 30.00 in 10.0 mi Calm Calm - N/A   Clear
12:55 AM 84.4 °F 88.2 °F 69.3 °F 60% 29.99 in 10.0 mi ESE 4.6 mph - N/A   Clear
1:15 AM 84.4 °F 88.2 °F 69.1 °F 60% 29.98 in 10.0 mi SE 4.6 mph - N/A   Clear
1:35 AM 84.6 °F 88.2 °F 68.9 °F 59% 29.98 in 10.0 mi ESE 5.8 mph - N/A   Clear
1:55 AM 84.2 °F 87.6 °F 68.5 °F 59% 29.98 in 10.0 mi SE 5.8 mph - N/A   Clear
2:15 AM 84.2 °F 87.3 °F 68.0 °F 58% 29.97 in 10.0 mi SSE 5.8 mph - N/A   Clear
2:35 AM 83.7 °F 86.5 °F 67.5 °F 58% 29.97 in 10.0 mi SSE 4.6 mph - N/A   Clear
2:55 AM 83.3 °F 85.9 °F 67.3 °F 58% 29.97 in 10.0 mi SSE 3.5 mph - N/A   Clear
3:15 AM 83.3 °F 85.9 °F 67.1 °F 58% 29.97 in 10.0 mi SSE 4.6 mph - N/A   Clear
3:35 AM 82.9 °F 85.6 °F 67.1 °F 59% 29.97 in 10.0 mi South 5.8 mph - N/A   Clear
4:15 AM 82.0 °F 84.7 °F 67.3 °F 61% 29.98 in 10.0 mi South 3.5 mph - N/A   Clear
4:35 AM 81.7 °F 84.3 °F 67.5 °F 62% 29.98 in 10.0 mi South 4.6 mph - N/A   Clear
4:55 AM 81.0 °F 83.6 °F 67.8 °F 64% 29.98 in 10.0 mi SSE 4.6 mph - N/A   Clear
5:15 AM 80.6 °F 83.2 °F 68.0 °F 65% 29.98 in 10.0 mi South 5.8 mph - N/A   Clear
5:35 AM 80.2 °F 83.0 °F 68.4 °F 67% 29.98 in 10.0 mi SSE 4.6 mph - N/A   Clear
5:55 AM 80.2 °F 83.1 °F 68.9 °F 68% 29.99 in 10.0 mi SSE 5.8 mph - N/A   Clear
6:15 AM 80.1 °F 82.9 °F 68.9 °F 69% 29.99 in 10.0 mi South 5.8 mph - N/A   Clear
6:35 AM 80.1 °F 82.9 °F 68.9 °F 69% 29.99 in 10.0 mi South 5.8 mph - N/A   Clear
6:50 AM 80.6 °F 83.9 °F 69.8 °F 70% 29.99 in 10.0 mi South 5.8 mph - N/A   Clear
7:50 AM 80.6 °F 83.9 °F 69.8 °F 70% 30.01 in 10.0 mi South 5.8 mph - N/A   Clear
8:50 AM 84.2 °F 88.4 °F 69.8 °F 62% 30.03 in 10.0 mi South 5.8 mph - N/A   Clear
10:50 AM 93.2 °F 94.9 °F 64.4 °F 38% 30.05 in 10.0 mi WSW 10.4 mph - N/A   Clear
11:50 AM 96.8 °F 97.1 °F 60.8 °F 30% 30.05 in 10.0 mi WSW 10.4 mph - N/A   Clear
12:50 PM 98.6 °F 100.0 °F 62.6 °F 30% 30.03 in 10.0 mi WSW 10.4 mph - N/A   Clear
1:50 PM 98.6 °F 99.4 °F 60.8 °F 29% 30.01 in 10.0 mi SE 3.5 mph - N/A   Clear
2:50 PM 98.6 °F 98.5 °F 59.0 °F 27% 29.99 in 10.0 mi ESE 3.5 mph - N/A   Clear
4:30 PM 98.6 °F 99.4 °F 60.8 °F 29% 29.95 in 10.0 mi SSE 8.1 mph - N/A   Clear
4:50 PM 93.2 °F 94.9 °F 64.4 °F 38% 29.95 in 10.0 mi NNW 11.5 mph 21.9 mph N/A   Mostly Cloudy
5:50 PM 91.4 °F 94.0 °F 66.2 °F 43% 29.94 in 10.0 mi ENE 8.1 mph - N/A   Scattered Clouds
6:50 PM 93.2 °F 94.9 °F 64.4 °F 38% 29.93 in 10.0 mi East 8.1 mph - N/A   Clear
7:50 PM 89.6 °F 91.1 °F 64.4 °F 43% 29.95 in 10.0 mi ESE 6.9 mph - N/A   Clear
8:15 PM 88.7 °F 90.1 °F 64.4 °F 44% 29.95 in 10.0 mi ESE 4.6 mph - N/A   Clear
8:35 PM 88.2 °F 89.3 °F 64.0 °F 44% 29.95 in 10.0 mi Calm Calm - N/A   Clear
8:55 PM 88.2 °F 89.3 °F 63.7 °F 44% 29.96 in 10.0 mi Calm Calm - N/A   Clear
9:15 PM 86.5 °F 88.4 °F 65.3 °F 49% 29.96 in 10.0 mi Calm Calm - N/A   Clear
9:35 PM 88.2 °F 89.3 °F 63.7 °F 44% 29.98 in 10.0 mi Calm Calm - N/A   Clear
9:55 PM 85.6 °F 87.4 °F 64.9 °F 50% 29.98 in 10.0 mi Calm Calm - N/A   Clear
10:15 PM 88.0 °F 89.3 °F 64.4 °F 45% 30.01 in 10.0 mi West 5.8 mph - N/A   Scattered Clouds
10:35 PM 89.2 °F 91.3 °F 65.3 °F 45% 30.02 in 10.0 mi West 8.1 mph - N/A   Scattered Clouds
10:55 PM 87.3 °F 89.2 °F 65.3 °F 48% 30.02 in 10.0 mi WNW 4.6 mph - N/A   Clear
11:15 PM 86.2 °F 88.2 °F 65.5 °F 50% 30.03 in 10.0 mi Calm Calm - N/A   Clear
11:35 PM 86.2 °F 88.2 °F 65.5 °F 50% 30.04 in 10.0 mi West 4.6 mph - N/A   Scattered Clouds
11:55 PM 86.0 °F 87.6 °F 64.8 °F 49% 30.04 in 10.0 mi WSW 3.5 mph - N/A   Clear